Back to catalog

HULIANWANG DIGUI-122

AliveCommunicationsLEO
NORAD 67062·PAYLOAD·🇨🇳 China

Launched Dec 11, 2025 from Wenchang Space Launch Site

Loading…

Next Passes (next 24 hours)

TLE

FreshSource: Space-Track

Epoch: Sep 14, 2026, 12:28 UTC

1 67062U 25295D   26257.51983430 -.00000116  00000-0  17304-4 0  9997
2 67062  50.0036  65.1635 0000820  60.6840 299.4114 13.29325625 37386

Track HULIANWANG DIGUI-122 in real time with AllMySat

Download on the App Store